Volkel, Netherlands

8:48 AM CET on February 23, 2017 (GMT +0100)
Volkel Air Base

Weather History for EHVK - October, 2012

Change the Weather History Date:

Sunday, October 28, 2012

  Actual Average Record
Temperature  
Mean Temperature 36 °F -  
Max Temperature 48 °F 48 °F 71 °F (2005)
Min Temperature 24 °F 36 °F 23 °F (1997)
Degree Days  
Heating Degree Days 29    
Moisture  
Dew Point 30 °F    
Average Humidity 88    
Maximum Humidity 100    
Minimum Humidity 54    
Precipitation  
Precipitation 0.00 in - - ()
Sea Level Pressure  
Sea Level Pressure 29.98 in    
Wind  
Wind Speed 4 mph ()    
Max Wind Speed 12 mph    
Max Gust Speed -    
Visibility 4.5 miles    
Events Fog    
Averages and records for this station are not official NWS values.
T = Trace of Precipitation, MM = Missing Value Source: Averaged Metar Reports

Daily Weather History Graph

Daily Weather History Graph

Search for Another Location

Airport or City:

Trip Planner

Search our weather history database for the weather conditions in past years. The results will help you decide how hot, cold, wet, or windy it might be!

Date:

Astronomy

Oct. 28, 2012 Rise Set
Actual Time 7:24 AM CET 5:16 PM CET
Civil Twilight 6:49 AM CET 5:51 PM CET
Nautical Twilight 6:10 AM CET 6:30 PM CET
Astronomical Twilight 5:31 AM CET 7:09 PM CET
Moon 4:28 PM CET (10/28) 5:57 AM CET (10/28)
Length of Visible Light 11h 01m
Length of Day
9h 52m
Waxing Gibbous, 98% of the Moon is Illuminated
Oct 28
Waxing Gibbous
Oct 29
Full
Nov 7
Last Quarter
Nov 13
New
Nov 20
First Quarter

Hourly Weather History & Observations

Time (CET) Temp. Windchill Dew Point Humidity Pressure Visibility Wind Dir Wind Speed Gust Speed Precip Events Conditions
12:25 AM 32.0 °F 28.7 °F 30.2 °F 93% 29.98 in 6.2 mi NNW 3.5 mph - N/A   Partly Cloudy
12:55 AM 32.0 °F 26.4 °F 30.2 °F 93% 29.98 in 6.2 mi NNW 5.8 mph - N/A   Unknown
1:25 AM 32.0 °F 27.5 °F 30.2 °F 93% 29.98 in 6.2 mi NNW 4.6 mph - N/A   Unknown
1:55 AM 32.0 °F 28.7 °F 30.2 °F 93% 29.98 in 6.2 mi NNW 3.5 mph - N/A   Partly Cloudy
2:25 AM 32.0 °F 27.5 °F 30.2 °F 93% 29.98 in 6.2 mi NNW 4.6 mph - N/A   Unknown
2:55 AM 32.0 °F 27.5 °F 32.0 °F 100% 29.98 in 6.2 mi NNW 4.6 mph - N/A   Unknown
2:25 AM 32.0 °F - 30.2 °F 93% 29.98 in 6.2 mi NW 2.3 mph - N/A   Unknown
2:55 AM 30.2 °F - 28.4 °F 93% 29.98 in 6.2 mi WNW 1.2 mph - N/A   Unknown
3:25 AM 28.4 °F - 28.4 °F 100% 29.98 in 6.2 mi NW 2.3 mph - N/A   Unknown
3:55 AM 28.4 °F - 26.6 °F 93% 29.98 in 6.2 mi WNW 1.2 mph - N/A   Unknown
4:08 AM 28.4 °F - 26.6 °F 93% 29.98 in 1.9 mi WNW 2.3 mph - N/A   Mist
4:12 AM 26.6 °F - 26.6 °F 100% 29.98 in 6.2 mi WNW 2.3 mph - N/A   Partly Cloudy
4:16 AM 26.6 °F - 26.6 °F 100% 29.98 in 3.7 mi NW 2.3 mph - N/A   Partly Cloudy
4:21 AM 26.6 °F - 26.6 °F 100% 29.98 in 5.6 mi NW 1.2 mph - N/A   Partly Cloudy
4:25 AM 26.6 °F - 26.6 °F 100% 29.98 in 6.2 mi NW 1.2 mph - N/A   Partly Cloudy
4:38 AM 28.4 °F - 26.6 °F 93% 29.98 in 6.2 mi NW 1.2 mph - N/A   Unknown
4:42 AM 26.6 °F - 26.6 °F 100% 29.98 in - NE 1.2 mph - N/A   Mist
4:47 AM 26.6 °F - 26.6 °F 100% 29.98 in - SE 1.2 mph - N/A Fog Light Freezing Fog
4:51 AM 26.6 °F - 24.8 °F 93% 29.98 in 0.6 mi South 1.2 mph - N/A Fog Light Freezing Fog
4:55 AM 26.6 °F - 24.8 °F 93% 29.98 in 0.7 mi SSW 1.2 mph - N/A   Mist
5:00 AM 26.6 °F - 24.8 °F 93% 29.98 in 1.0 mi South 1.2 mph - N/A   Mist
5:04 AM 26.6 °F - 26.6 °F 100% 29.98 in 3.1 mi South 1.2 mph - N/A   Mist
5:17 AM 26.6 °F - 26.6 °F 100% 29.98 in 0.9 mi WSW 1.2 mph - N/A   Overcast
5:25 AM 28.4 °F - 28.4 °F 100% 29.98 in 1.4 mi West 2.3 mph - N/A   Mist
5:29 AM 28.4 °F - 26.6 °F 93% 29.98 in 2.8 mi West 2.3 mph - N/A   Mist
5:33 AM 26.6 °F - 26.6 °F 100% 29.98 in 5.0 mi West 1.2 mph - N/A   Mist
5:35 AM 24.8 °F - 23.0 °F 93% 29.98 in - WSW 1.2 mph - N/A   Mist
5:41 AM 24.8 °F - 23.0 °F 93% 29.98 in 3.1 mi SW 1.2 mph - N/A   Mist
5:43 AM 24.8 °F - 24.8 °F 100% 29.98 in - SSW 2.3 mph - N/A   Mist
5:49 AM 24.8 °F - 23.0 °F 93% 29.98 in 0.6 mi SSW 2.3 mph - N/A Fog Light Freezing Fog
5:55 AM 26.6 °F - 26.6 °F 100% 29.98 in 1.7 mi SW 2.3 mph - N/A   Mist
6:08 AM 28.4 °F 24.6 °F 28.4 °F 100% 29.98 in - WSW 3.5 mph - N/A   Overcast
6:11 AM 26.6 °F - 26.6 °F 100% 29.98 in 0.9 mi West 2.3 mph - N/A   Overcast
6:25 AM 24.8 °F - 24.8 °F 100% 29.98 in 0.2 mi SW 1.2 mph - N/A Fog Light Freezing Fog
6:55 AM 26.6 °F 21.2 °F 24.8 °F 93% 29.98 in 0.2 mi WSW 4.6 mph - N/A Fog Light Freezing Fog
7:25 AM 24.8 °F - 24.8 °F 100% 29.98 in 0.2 mi SW 1.2 mph - N/A Fog Light Freezing Fog
7:55 AM 26.6 °F - 26.6 °F 100% 29.98 in 0.1 mi SW 2.3 mph - N/A Fog Light Freezing Fog
7:58 AM 26.6 °F 21.2 °F 26.6 °F 100% 30.01 in 0.1 mi West 4.6 mph - N/A Fog Light Freezing Fog
8:05 AM 26.6 °F 21.2 °F 26.6 °F 100% 30.01 in 0.1 mi West 4.6 mph - N/A Fog Light Freezing Fog
8:25 AM 26.6 °F 21.2 °F 26.6 °F 100% 30.01 in 0.1 mi SW 4.6 mph - N/A Fog Light Freezing Fog
8:55 AM 28.4 °F 23.3 °F 28.4 °F 100% 30.01 in - SSW 4.6 mph - N/A   Mist
8:59 AM 30.2 °F 26.7 °F 28.4 °F 93% 30.01 in 1.8 mi SSW 3.5 mph - N/A   Mist
9:03 AM 30.2 °F 26.7 °F 30.2 °F 100% 30.01 in 0.9 mi SSW 3.5 mph - N/A   Overcast
9:14 AM 32.0 °F 28.7 °F 32.0 °F 100% 30.01 in - South 3.5 mph - N/A   Mist
9:18 AM 32.0 °F 28.7 °F 32.0 °F 100% 30.01 in 3.1 mi SSW 3.5 mph - N/A   Mist
9:25 AM 33.8 °F 30.8 °F 32.0 °F 93% 30.01 in 5.0 mi SSW 3.5 mph - N/A   Mist
9:38 AM 35.6 °F 31.7 °F 33.8 °F 93% 30.01 in 6.2 mi SSW 4.6 mph - N/A   Partly Cloudy
9:55 AM 37.4 °F 32.8 °F 35.6 °F 93% 30.01 in 6.2 mi South 5.8 mph - N/A   Unknown
10:25 AM 39.2 °F 35.0 °F 39.2 °F 100% 30.01 in 6.2 mi SSW 5.8 mph - N/A   Unknown
10:55 AM 41.0 °F 36.4 °F 37.4 °F 87% 30.01 in 6.2 mi SW 6.9 mph - N/A   Unknown
11:25 AM 42.8 °F 37.5 °F 35.6 °F 76% 30.01 in 6.2 mi SSW 9.2 mph - N/A   Partly Cloudy
11:55 AM 44.6 °F 39.7 °F 35.6 °F 71% 30.01 in 6.2 mi SW 9.2 mph - N/A   Unknown
12:25 PM 46.4 °F 42.4 °F 35.6 °F 66% 30.01 in 6.2 mi SSW 8.1 mph - N/A   Unknown
12:55 PM 46.4 °F 41.9 °F 35.6 °F 66% 29.98 in 6.2 mi SW 9.2 mph - N/A   Unknown
1:25 PM 46.4 °F 41.5 °F 33.8 °F 62% 29.98 in 6.2 mi SSW 10.4 mph - N/A   Unknown
1:55 PM 46.4 °F 41.5 °F 33.8 °F 62% 29.98 in 6.2 mi SSW 10.4 mph - N/A   Unknown
2:25 PM 48.2 °F - 35.6 °F 62% 29.98 in 6.2 mi SSW 9.2 mph - N/A   Unknown
2:55 PM 48.2 °F - 35.6 °F 62% 29.98 in 6.2 mi SW 10.4 mph - N/A   Unknown
3:25 PM 48.2 °F - 33.8 °F 58% 29.95 in 6.2 mi SSW 9.2 mph - N/A   Unknown
3:55 PM 48.2 °F - 32.0 °F 54% 29.95 in 6.2 mi SW 11.5 mph - N/A   Unknown
4:25 PM 46.4 °F 41.5 °F 32.0 °F 57% 29.95 in 6.2 mi SSW 10.4 mph - N/A   Unknown
4:55 PM 42.8 °F 38.6 °F 32.0 °F 66% 29.95 in 6.2 mi SSW 6.9 mph - N/A   Unknown
5:25 PM 42.8 °F 39.3 °F 32.0 °F 66% 29.95 in 6.2 mi South 5.8 mph - N/A   Unknown
5:55 PM 41.0 °F 37.1 °F 35.6 °F 81% 29.98 in 6.2 mi South 5.8 mph - N/A   Unknown
6:25 PM 41.0 °F 35.8 °F 35.6 °F 81% 29.98 in 6.2 mi South 8.1 mph - N/A   Overcast
6:55 PM 39.2 °F 33.0 °F 35.6 °F 87% 29.98 in 6.2 mi South 9.2 mph - N/A   Overcast
7:25 PM 39.2 °F 33.6 °F 35.6 °F 87% 29.98 in 6.2 mi South 8.1 mph - N/A   Overcast
7:55 PM 39.2 °F 33.0 °F 35.6 °F 87% 29.98 in 6.2 mi South 9.2 mph - N/A   Overcast
8:25 PM 39.2 °F 33.0 °F 33.8 °F 81% 29.98 in 6.2 mi South 9.2 mph - N/A   Overcast
8:55 PM 39.2 °F 32.5 °F 32.0 °F 75% 29.98 in 6.2 mi South 10.4 mph - N/A   Overcast
9:25 PM 39.2 °F 33.0 °F 32.0 °F 75% 29.98 in 6.2 mi South 9.2 mph - N/A   Overcast
9:55 PM 41.0 °F 35.2 °F 32.0 °F 70% 29.98 in 6.2 mi South 9.2 mph - N/A   Overcast
10:25 PM 41.0 °F 35.2 °F 32.0 °F 70% 29.98 in 6.2 mi South 9.2 mph - N/A   Overcast
10:55 PM 41.0 °F 34.7 °F 32.0 °F 70% 29.98 in 6.2 mi South 10.4 mph - N/A   Overcast